User: anonymous   Login
Location: Unspecified
(0.0000°N, 0.0000°E)
Time: 05:31:56
(UTC+00:00)
Language:

GONETS M 06 - Orbit

View from above orbital plane
View from above orbital plane
View from above satellite
View from above satellite

Ground track
Ground track

The orbit data is extracted from the following two-line orbital elements,

1 39250U 13048B   17177.84816199 +.00000010 +00000-0 +00000-0 0  9995
2 39250 082.4854 226.8275 0018142 187.5498 172.5314 12.42917782171917
Epoch (UTC): 26 June 2017 20:21:21
Eccentricity: 0.0018142
inclination: 82.4854°
perigee height: 1480 km
apogee height: 1508 km
right ascension of ascending node: 226.8275°
argument of perigee: 187.5498°
revolutions per day: 12.42917782
mean anomaly at epoch: 172.5314°
orbit number at epoch: 17191

The dashed part of the orbit path shows where the satellite is in the earth's shadow,  

DLR